SCP
0 0 0 0 0 0 0 0 0 0 0 0 0 0 0 0 0 0 0 0 0 0
0 0 0 0 0 0 0 0 0 0 0 0 0 0 0 0 0 0 0 0 0 0
0 0 0 0 0 0 0 0 0 0 0 0 0 0 0 0 0 0 0 0 0 0
0 0 0 0 0 0 0 0 0 0 0 0 0 0 0 0 0 0 0 0 0 0
0 0 0 0 0 0 0 0 0 0 0 0 0 0 0 0 0 0 -0 0 0 0
0 0 0 0 0 0 0 0 0 0 0 0 0 0 0 0 0 0 0 0 0 0
0 0 0 0 0 0 0 0 0 0 0 0 0 0 0 0 0 0 0 0 0 0
0 0 0 0 0 0 0 0 0 0 0 0 0 0 0 0 0 0 0 0 0 0
0 0 0 0 0 0 0 0 0 0 0 0 0 0 0 0 0 0 0 0 0 0
0 0 0 0 -0 -0 0 0 0 0 0 0 0 0 0 0 0 0 0 -0 0 0
0 0 0 0 0 -0 0 0 0 0 0 0 0 0 0 0 0 0 0 -0 -0 -0
0 0 0 0 -0 -0 0 0 0 0 0 0 0 0 0 0 0 0 0 0 -0 0
0 0 0 0 0 -0 -0 -0 0 0 0 0 0 0 0 0 0 0 0 0 0 0
0 0 0 0 0 0 0 -0 0 0 0 0 0 0 0 0 0 0 0 0 0 0
Wind_Speed_500mb
40 35 36 39 40 42 47 54 56 55 58 50 47 48 47 49 50 48 47 49 46 49
32 32 34 36 36 37 44 51 52 53 58 55 49 47 50 49 47 47 47 47 46 43
26 30 30 30 33 36 39 45 50 51 56 55 51 48 48 49 48 46 44 44 42 39
26 28 28 30 32 34 36 40 51 52 54 54 52 52 51 50 50 48 46 42 36 37
23 25 29 32 33 34 32 34 42 50 48 49 49 49 51 52 53 51 50 45 39 34
25 30 34 37 34 36 30 32 36 40 44 44 47 50 52 51 50 51 56 51 39 40
30 35 36 35 36 37 31 31 31 33 37 41 44 44 47 51 53 53 55 57 53 42
31 31 35 39 41 37 30 23 28 29 30 35 39 43 47 48 48 52 55 58 58 58
27 31 39 49 46 33 25 23 26 26 30 38 36 35 42 44 44 45 50 55 55 58
23 28 39 50 52 35 29 28 23 26 30 38 40 32 31 39 41 37 41 47 52 53
21 25 33 45 55 47 28 27 26 33 41 43 41 32 26 32 33 33 40 46 47 51
19 23 29 37 49 54 42 34 36 38 36 29 31 33 21 27 32 31 37 38 45 42
19 20 26 32 37 46 52 48 40 26 23 26 30 31 26 20 30 29 32 34 37 36
21 23 23 29 30 36 46 53 38 28 25 29 32 36 35 31 29 35 39 36 34 34
Wind_Direction_500mb
326 340 345 348 356 0 1 2 359 355 349 348 346 346 342 339 337 327 323 319 316 313
351 354 1 7 6 5 9 2 359 358 356 357 354 351 346 340 340 336 334 328 321 320
0 6 6 9 10 13 12 4 3 3 2 3 3 359 356 353 350 345 343 338 333 332
5 8 6 5 7 10 14 7 9 7 5 8 11 12 10 8 2 358 352 348 341 342
10 5 357 355 352 351 354 357 1 4 2 8 13 13 14 13 18 15 8 358 355 344
5 359 355 350 346 344 344 346 351 2 1 10 12 16 17 16 15 20 22 15 11 7
9 357 352 350 344 342 338 339 346 358 4 6 6 10 13 17 21 26 28 27 26 23
1 8 3 354 343 331 327 331 337 343 356 357 360 9 4 8 10 17 25 29 29 28
18 14 8 4 359 356 351 339 335 333 340 351 347 358 0 3 3 12 16 18 21 24
2 9 12 10 9 1 351 350 340 334 336 338 343 338 350 355 357 3 8 11 10 13
359 11 11 11 13 12 3 1 345 336 332 333 334 340 346 345 348 2 11 5 1 6
6 13 11 10 14 19 15 357 340 336 343 356 356 354 2 359 352 354 357 355 356 359
10 12 9 6 8 13 14 9 0 2 7 359 358 358 357 347 352 354 353 355 354 359
10 13 10 1 360 5 10 14 17 16 9 9 15 22 14 3 353 351 351 352 355 357
Wind_Speed_850mb
40 35 36 39 40 42 47 54 56 55 58 50 47 48 47 49 50 48 47 49 46 49
32 32 34 36 36 37 44 51 52 53 58 55 49 47 50 49 47 47 47 47 46 43
26 30 30 30 33 36 39 45 50 51 56 55 51 48 48 49 48 46 44 44 42 39
26 28 28 30 32 34 36 40 51 52 54 54 52 52 51 50 50 48 46 42 36 37
23 25 29 32 33 34 32 34 42 50 48 49 49 49 51 52 53 51 50 45 39 34
25 30 34 37 34 36 30 32 36 40 44 44 47 50 52 51 50 51 56 51 39 40
30 35 36 35 36 37 31 31 31 33 37 41 44 44 47 51 53 53 55 57 53 42
31 31 35 39 41 37 30 23 28 29 30 35 39 43 47 48 48 52 55 58 58 58
27 31 39 49 46 33 25 23 26 26 30 38 36 35 42 44 44 45 50 55 55 58
23 28 39 50 52 35 29 28 23 26 30 38 40 32 31 39 41 37 41 47 52 53
21 25 33 45 55 47 28 27 26 33 41 43 41 32 26 32 33 33 40 46 47 51
19 23 29 37 49 54 42 34 36 38 36 29 31 33 21 27 32 31 37 38 45 42
19 20 26 32 37 46 52 48 40 26 23 26 30 31 26 20 30 29 32 34 37 36
21 23 23 29 30 36 46 53 38 28 25 29 32 36 35 31 29 35 39 36 34 34
Wind_Direction_850mb
326 340 345 348 356 0 1 2 359 355 349 348 346 346 342 339 337 327 323 319 316 313
351 354 1 7 6 5 9 2 359 358 356 357 354 351 346 340 340 336 334 328 321 320
0 6 6 9 10 13 12 4 3 3 2 3 3 359 356 353 350 345 343 338 333 332
5 8 6 5 7 10 14 7 9 7 5 8 11 12 10 8 2 358 352 348 341 342
10 5 357 355 352 351 354 357 1 4 2 8 13 13 14 13 18 15 8 358 355 344
5 359 355 350 346 344 344 346 351 2 1 10 12 16 17 16 15 20 22 15 11 7
9 357 352 350 344 342 338 339 346 358 4 6 6 10 13 17 21 26 28 27 26 23
1 8 3 354 343 331 327 331 337 343 356 357 360 9 4 8 10 17 25 29 29 28
18 14 8 4 359 356 351 339 335 333 340 351 347 358 0 3 3 12 16 18 21 24
2 9 12 10 9 1 351 350 340 334 336 338 343 338 350 355 357 3 8 11 10 13
359 11 11 11 13 12 3 1 345 336 332 333 334 340 346 345 348 2 11 5 1 6
6 13 11 10 14 19 15 357 340 336 343 356 356 354 2 359 352 354 357 355 356 359
10 12 9 6 8 13 14 9 0 2 7 359 358 358 357 347 352 354 353 355 354 359
10 13 10 1 360 5 10 14 17 16 9 9 15 22 14 3 353 351 351 352 355 357